Location: Overspoor
(51.4747°N, 5.6641°E)
Time: 23:56:56
(UTC+02:00)

KKS-1 - Pass Details

Date: 29 June 2022
Orbit: 634 x 649 km, 98.2° (Epoch: 15 August)

Event Time Altitude Azimuth Distance (km) Brightness Sun altitude
Rises 22:54:48 0° 23° (NNE) 2,980 ? -6.9°
Reaches altitude 10° 22:57:19 10° 35° (NE) 2,063 ? -7.2°
Maximum altitude 23:01:09 27° 94° (E) 1,245 ? -7.5°
Drops below altitude 10° 23:04:58 10° 153° (SSE) 2,044 ? -7.9°
Enters shadow 23:05:03 10° 153° (SSE) 2,074 ? -7.9°
